Location: Unspecified
(0.0000°N, 0.0000°E)
Time: 12:27:30
(UTC+00:00)

Vanguard 2 - All Passes

Search period start: 02 October 2014 00:00
Search period end: 12 October 2014 00:00
Orbit: 553 x 2947 km, 32.9° (Epoch: 01 October)

Date Brightness Start Highest point End Pass type
(mag) Time Alt. Az. Time Alt. Az. Time Alt. Az.
02 Oct - 03:55:31 10° NNE 03:58:19 11° NNE 04:01:23 10° NE visible
02 Oct - 05:59:38 10° NNW 06:11:50 37° NE 06:27:20 10° E daylight
02 Oct - 08:08:40 10° NW 08:25:00 86° NE 08:42:43 10° SE daylight
02 Oct - 10:22:15 10° W 10:38:39 43° SW 10:53:02 10° SSE daylight
02 Oct - 12:44:26 10° WSW 12:52:56 16° SSW 13:00:07 10° S daylight
02 Oct - 19:27:54 10° SSW 19:32:19 32° SSE 19:35:56 10° E visible
02 Oct - 21:37:40 10° W 21:40:38 20° NNW 21:43:45 10° NNE night (unlit)
03 Oct - 04:12:26 10° N 04:18:39 15° NNE 04:26:11 10° ENE visible
03 Oct - 06:18:24 10° NW 06:31:30 48° NE 06:48:19 10° ESE daylight
03 Oct - 08:28:12 10° WNW 08:44:39 78° SW 09:02:11 10° SE daylight
03 Oct - 10:43:22 10° W 10:58:35 34° SSW 11:11:52 10° SSE daylight
03 Oct - 13:08:28 10° SW 13:13:37 12° SSW 13:18:12 10° S daylight
03 Oct - 17:39:59 10° S 17:41:58 11° SSE 17:43:45 10° SE daylight
03 Oct - 19:46:52 10° SW 19:51:42 67° SE 19:55:36 10° ENE visible
04 Oct - 04:30:27 10° NNW 04:38:40 21° NE 04:49:19 10° ENE visible
04 Oct - 06:37:20 10° NW 06:51:04 61° NE 07:08:46 10° ESE daylight
04 Oct - 08:48:02 10° WNW 09:04:22 62° SW 09:21:27 10° SE daylight
04 Oct - 11:05:07 10° W 11:18:46 26° SSW 11:30:39 10° SSE daylight
04 Oct - 17:57:28 10° SSW 18:01:53 19° SSE 18:05:19 10° ESE daylight
04 Oct - 20:06:18 10° WSW 20:10:55 56° NW 20:14:47 10° NE visible
05 Oct - 04:48:47 10° NNW 04:58:24 29° NE 05:11:30 10° E visible
05 Oct - 06:56:26 10° NW 07:10:35 77° NE 07:28:47 10° ESE daylight
05 Oct - 09:08:15 10° WNW 09:24:12 49° SSW 09:40:33 10° SE daylight
05 Oct - 11:27:32 10° WSW 11:39:13 21° SSW 11:49:25 10° SSE daylight
05 Oct - 18:15:57 10° SSW 18:21:37 31° SSE 18:25:40 10° E visible
05 Oct - 20:26:16 10° W 20:30:06 27° NW 20:33:28 10° NNE visible
06 Oct - 05:07:20 10° NNW 05:17:56 39° NE 05:32:55 10° E visible
06 Oct - 07:15:46 10° WNW 07:30:10 85° SW 07:48:28 10° SE daylight
06 Oct - 09:28:56 10° W 09:44:13 39° SSW 09:59:32 10° SSE daylight
06 Oct - 11:50:33 10° SW 11:59:59 17° SSW 12:08:17 10° SSE daylight
06 Oct - 16:26:09 10° SSW 16:30:34 15° SSE 16:34:07 10° SE daylight
06 Oct - 18:34:54 10° SW 18:41:08 56° SSE 18:45:24 10° ENE visible
06 Oct - 20:47:11 10° WNW 20:49:19 13° NW 20:51:20 10° N visible
07 Oct - 03:21:09 10° N 03:26:02 14° NE 03:31:59 10° ENE visible
07 Oct - 05:26:05 10° NW 05:37:21 52° NE 05:53:43 10° ESE visible
07 Oct - 07:35:21 10° WNW 07:49:51 69° SW 08:07:54 10° SE daylight
07 Oct - 09:50:09 10° W 10:04:27 31° SSW 10:18:29 10° SSE daylight
07 Oct - 12:13:50 10° SW 12:21:01 14° SSW 12:27:23 10° SSE daylight
07 Oct - 14:35:45 10° S 14:37:29 10° S 14:39:07 10° SSE daylight
07 Oct - 16:44:20 10° SSW 16:50:39 21° SSE 16:55:12 10° ESE daylight
07 Oct - 18:54:15 10° WSW 19:00:27 78° NW 19:04:42 10° NE visible
08 Oct - 03:38:47 10° N 03:45:43 21° NE 03:55:02 10° E visible
08 Oct - 05:45:00 10° NW 05:56:44 68° NE 06:14:02 10° ESE daylight
08 Oct - 07:55:17 10° WNW 08:09:42 54° SSW 08:27:08 10° SE daylight
08 Oct - 10:11:57 10° WSW 10:24:58 25° SSW 10:37:28 10° SSE daylight
08 Oct - 12:36:43 10° SSW 12:42:12 12° S 12:47:08 10° SSE daylight
08 Oct - 14:53:16 10° SSW 14:58:11 13° S 15:02:16 10° SE daylight
08 Oct - 17:02:59 10° SW 17:10:33 32° SSE 17:15:32 10° E daylight
08 Oct - 19:14:04 10° WSW 19:19:35 40° NW 19:23:36 10° NNE visible
09 Oct - 03:57:00 10° NNW 04:05:09 30° NE 04:16:58 10° E visible
09 Oct - 06:04:09 10° NW 06:16:11 86° NE 06:33:56 10° SE daylight
09 Oct - 08:15:36 10° W 08:29:43 43° SSW 08:46:15 10° SE daylight
09 Oct - 10:34:20 10° WSW 10:45:47 20° SSW 10:56:35 10° SSE daylight
09 Oct - 12:58:14 10° SSW 13:03:25 12° S 13:08:02 10° SSE daylight
09 Oct - 15:11:38 10° SSW 15:18:40 18° SSE 15:23:59 10° SE daylight
09 Oct - 17:21:59 10° SW 17:30:14 51° SSE 17:35:21 10° ENE daylight
09 Oct - 19:34:29 10° W 19:38:39 21° NW 19:41:59 10° NNE visible
10 Oct - 04:15:30 10° NNW 04:24:25 41° NE 04:38:09 10° ESE visible
10 Oct - 06:23:32 10° WNW 06:35:46 75° SW 06:53:32 10° SE daylight
10 Oct - 08:36:23 10° W 08:49:58 34° SSW 09:05:19 10° SSE daylight
10 Oct - 10:57:02 10° SW 11:06:53 17° SSW 11:16:01 10° SSE daylight
10 Oct - 13:18:16 10° SSW 13:24:32 13° S 13:29:53 10° SSE daylight
10 Oct - 15:30:15 10° SSW 15:38:56 24° SSE 15:44:55 10° ESE daylight
10 Oct - 17:41:18 10° SW 17:49:40 84° SE 17:54:45 10° ENE daylight
10 Oct - 19:56:25 10° NW 19:57:47 11° NW 19:59:03 10° NNW visible
11 Oct - 02:30:05 10° NNE 02:33:40 13° NE 02:37:56 10° ENE visible
11 Oct - 04:34:14 10° NW 04:43:39 57° NE 04:58:44 10° ESE visible
11 Oct - 06:43:13 10° WNW 06:55:32 59° SSW 07:12:54 10° SE daylight
11 Oct - 08:57:41 10° WSW 09:10:29 27° SSW 09:24:24 10° SSE daylight
11 Oct - 11:19:36 10° SW 11:28:11 15° S 11:36:02 10° SSE daylight
11 Oct - 13:37:33 10° SSW 13:45:27 16° S 13:51:47 10° SE daylight
11 Oct - 15:49:05 10° SW 15:58:58 34° SSE 16:05:17 10° E daylight
11 Oct - 18:01:00 10° WSW 18:08:53 58° NW 18:13:48 10° NE visible
